Wetterdaten: Sonntag, 23.11.2014
Datum Zeit Temp. A. Feuchte A. Luftdruck Regen Wind Richtung Richtung Sonnenschein ET UV Solar Taupunkt Windchill Windben Empfang
23.11.2014 00:00 2,5 C 82 % 1025,4 hPa 0,0 l/m 0,0 km/h (0 Bft) S 175 0 min 0,000 mm 0,0 UV-I 0 W/m -0,3 C 2,5 C 0,0 km/h (0 Bft) 0,00 %
23.11.2014 00:15 2,5 C 82 % 1025,5 hPa 0,0 l/m 0,4 km/h (0 Bft) N-NW 336 0 min 0,000 mm 0,0 UV-I 0 W/m -0,3 C 2,5 C 4,0 km/h (1 Bft) 0,00 %
23.11.2014 00:30 2,5 C 82 % 1025,5 hPa 0,0 l/m 0,4 km/h (0 Bft) O-SO 114 0 min 0,000 mm 0,0 UV-I 0 W/m -0,3 C 2,5 C 4,0 km/h (1 Bft) 0,00 %
23.11.2014 00:45 2,5 C 82 % 1025,3 hPa 0,0 l/m 4,3 km/h (1 Bft) S 172 0 min 0,000 mm 0,0 UV-I 0 W/m -0,3 C 2,5 C 7,9 km/h (2 Bft) 0,00 %
23.11.2014 01:00 2,5 C 82 % 1025,7 hPa 0,0 l/m 2,2 km/h (1 Bft) SO 135 0 min 0,000 mm 0,0 UV-I 0 W/m -0,3 C 2,5 C 4,0 km/h (1 Bft) 0,00 %
23.11.2014 01:15 2,6 C 83 % 1025,8 hPa 0,0 l/m 1,8 km/h (1 Bft) O-SO 111 0 min 0,000 mm 0,0 UV-I 0 W/m 0,0 C 2,6 C 4,0 km/h (1 Bft) 0,00 %
23.11.2014 01:30 2,6 C 83 % 1025,7 hPa 0,0 l/m 4,7 km/h (1 Bft) O-SO 107 0 min 0,000 mm 0,0 UV-I 0 W/m 0,0 C 2,6 C 7,9 km/h (2 Bft) 0,00 %
23.11.2014 01:45 2,6 C 83 % 1025,8 hPa 0,0 l/m 5,4 km/h (1 Bft) SO 129 0 min 0,000 mm 0,0 UV-I 0 W/m 0,0 C 2,6 C 7,9 km/h (2 Bft) 0,00 %
23.11.2014 02:00 2,6 C 83 % 1025,9 hPa 0,0 l/m 2,9 km/h (1 Bft) O 89 0 min 0,000 mm 0,0 UV-I 0 W/m 0,0 C 2,6 C 4,0 km/h (1 Bft) 0,00 %
23.11.2014 02:15 2,6 C 83 % 1025,8 hPa 0,0 l/m 5,8 km/h (2 Bft) O 92 0 min 0,000 mm 0,0 UV-I 0 W/m 0,0 C 2,6 C 7,9 km/h (2 Bft) 0,00 %
23.11.2014 02:30 2,6 C 83 % 1026,0 hPa 0,0 l/m 0,7 km/h (0 Bft) O-SO 120 0 min 0,000 mm 0,0 UV-I 0 W/m 0,0 C 2,6 C 4,0 km/h (1 Bft) 0,00 %
23.11.2014 02:45 2,6 C 83 % 1025,7 hPa 0,0 l/m 0,7 km/h (0 Bft) S 172 0 min 0,000 mm 0,0 UV-I 0 W/m 0,0 C 2,6 C 4,0 km/h (1 Bft) 0,00 %
23.11.2014 03:00 2,7 C 83 % 1025,8 hPa 0,0 l/m 4,3 km/h (1 Bft) SO 136 0 min 0,000 mm 0,0 UV-I 0 W/m 0,1 C 2,7 C 7,9 km/h (2 Bft) 0,00 %
23.11.2014 03:15 2,7 C 83 % 1025,6 hPa 0,0 l/m 1,4 km/h (1 Bft) O 94 0 min 0,000 mm 0,0 UV-I 0 W/m 0,1 C 2,7 C 4,0 km/h (1 Bft) 0,00 %
23.11.2014 03:30 2,7 C 83 % 1025,6 hPa 0,0 l/m 2,2 km/h (1 Bft) S 174 0 min 0,000 mm 0,0 UV-I 0 W/m 0,1 C 2,7 C 4,0 km/h (1 Bft) 0,00 %
23.11.2014 03:45 2,7 C 83 % 1025,5 hPa 0,0 l/m 12,2 km/h (2 Bft) SO 144 0 min 0,000 mm 0,0 UV-I 0 W/m 0,1 C -2,0 C 19,8 km/h (3 Bft) 0,00 %
23.11.2014 04:00 2,6 C 83 % 1025,5 hPa 0,0 l/m 0,0 km/h (0 Bft) S 182 0 min 0,000 mm 0,0 UV-I 0 W/m 0,0 C 2,6 C 0,0 km/h (0 Bft) 0,00 %
23.11.2014 04:15 2,7 C 83 % 1025,4 hPa 0,0 l/m 6,5 km/h (2 Bft) O 100 0 min 0,000 mm 0,0 UV-I 0 W/m 0,1 C 2,6 C 7,9 km/h (2 Bft) 0,00 %
23.11.2014 04:30 2,7 C 83 % 1025,4 hPa 0,0 l/m 4,3 km/h (1 Bft) S-SO 159 0 min 0,000 mm 0,0 UV-I 0 W/m 0,1 C 2,7 C 7,9 km/h (2 Bft) 0,00 %
23.11.2014 04:45 2,7 C 83 % 1025,3 hPa 0,0 l/m 13,0 km/h (3 Bft) O 100 0 min 0,000 mm 0,0 UV-I 0 W/m 0,1 C -2,5 C 15,8 km/h (3 Bft) 0,00 %
23.11.2014 05:00 2,7 C 83 % 1025,3 hPa 0,0 l/m 4,0 km/h (1 Bft) O-SO 106 0 min 0,000 mm 0,0 UV-I 0 W/m 0,1 C 2,7 C 7,9 km/h (2 Bft) 0,00 %
23.11.2014 05:15 2,8 C 83 % 1024,3 hPa 0,0 l/m 4,0 km/h (1 Bft) SO 138 0 min 0,000 mm 0,0 UV-I 0 W/m 0,2 C 2,8 C 7,9 km/h (2 Bft) 0,00 %
23.11.2014 05:30 2,9 C 83 % 1025,4 hPa 0,0 l/m 4,3 km/h (1 Bft) O-SO 109 0 min 0,000 mm 0,0 UV-I 0 W/m 0,3 C 2,9 C 7,9 km/h (2 Bft) 0,00 %
23.11.2014 05:45 2,9 C 84 % 1025,3 hPa 0,0 l/m 5,4 km/h (1 Bft) O-SO 107 0 min 0,000 mm 0,0 UV-I 0 W/m 0,5 C 2,9 C 11,9 km/h (2 Bft) 0,00 %
23.11.2014 06:00 3,0 C 84 % 1025,1 hPa 0,0 l/m 0,4 km/h (0 Bft) SW 231 0 min 0,000 mm 0,0 UV-I 0 W/m 0,6 C 3,0 C 4,0 km/h (1 Bft) 0,00 %
23.11.2014 06:15 3,1 C 84 % 1024,9 hPa 0,0 l/m 5,4 km/h (1 Bft) O 95 0 min 0,000 mm 0,0 UV-I 0 W/m 0,7 C 3,1 C 7,9 km/h (2 Bft) 0,00 %
23.11.2014 06:30 3,1 C 84 % 1025,3 hPa 0,0 l/m 1,4 km/h (1 Bft) O 101 0 min 0,000 mm 0,0 UV-I 0 W/m 0,7 C 3,1 C 4,0 km/h (1 Bft) 0,00 %
23.11.2014 06:45 3,1 C 84 % 1025,5 hPa 0,0 l/m 0,0 km/h (0 Bft) O-SO 117 0 min 0,000 mm 0,0 UV-I 0 W/m 0,7 C 3,1 C 0,0 km/h (0 Bft) 0,00 %
23.11.2014 07:00 3,1 C 84 % 1025,5 hPa 0,0 l/m 4,0 km/h (1 Bft) O-NO 72 0 min 0,000 mm 0,0 UV-I 0 W/m 0,7 C 3,1 C 7,9 km/h (2 Bft) 0,00 %
23.11.2014 07:15 3,1 C 84 % 1025,6 hPa 0,0 l/m 9,0 km/h (2 Bft) O-SO 103 0 min 0,000 mm 0,0 UV-I 0 W/m 0,7 C 0,8 C 11,9 km/h (2 Bft) 0,00 %
23.11.2014 07:30 3,1 C 84 % 1025,7 hPa 0,0 l/m 8,3 km/h (2 Bft) O 89 0 min 0,000 mm 0,0 UV-I 0 W/m 0,7 C 1,3 C 11,9 km/h (2 Bft) 0,00 %
23.11.2014 07:45 3,1 C 84 % 1025,7 hPa 0,0 l/m 4,7 km/h (1 Bft) O-SO 116 0 min 0,000 mm 0,0 UV-I 0 W/m 0,7 C 3,1 C 7,9 km/h (2 Bft) 0,00 %
23.11.2014 08:00 3,1 C 84 % 1026,0 hPa 0,0 l/m 0,4 km/h (0 Bft) O 99 0 min 0,000 mm 0,0 UV-I 0 W/m 0,7 C 3,1 C 4,0 km/h (1 Bft) 0,00 %
23.11.2014 08:15 3,0 C 84 % 1026,2 hPa 0,0 l/m 0,4 km/h (0 Bft) O-NO 68 0 min 0,000 mm 0,0 UV-I 0 W/m 0,6 C 3,0 C 4,0 km/h (1 Bft) 0,00 %
23.11.2014 08:30 3,0 C 84 % 1026,1 hPa 0,0 l/m 0,0 km/h (0 Bft) N 354 0 min 0,000 mm 0,0 UV-I 17 W/m 0,6 C 3,0 C 0,0 km/h (0 Bft) 0,00 %
23.11.2014 08:45 2,9 C 84 % 1026,2 hPa 0,0 l/m 0,0 km/h (0 Bft) S 171 0 min 0,000 mm 0,0 UV-I 49 W/m 0,5 C 2,9 C 0,0 km/h (0 Bft) 0,00 %
23.11.2014 09:00 2,9 C 84 % 1026,2 hPa 0,0 l/m 0,0 km/h (0 Bft) NO 49 0 min 0,000 mm 0,0 UV-I 65 W/m 0,5 C 2,9 C 0,0 km/h (0 Bft) 0,00 %
23.11.2014 09:15 3,0 C 84 % 1026,3 hPa 0,0 l/m 1,8 km/h (1 Bft) SO 141 0 min 0,000 mm 0,0 UV-I 69 W/m 0,6 C 3,0 C 4,0 km/h (1 Bft) 0,00 %
23.11.2014 09:30 3,2 C 84 % 1026,5 hPa 0,0 l/m 0,0 km/h (0 Bft) S 173 0 min 0,000 mm 0,0 UV-I 98 W/m 0,8 C 3,2 C 0,0 km/h (0 Bft) 0,00 %
23.11.2014 09:45 3,3 C 84 % 1026,3 hPa 0,0 l/m 2,2 km/h (1 Bft) O-NO 63 0 min 0,000 mm 1,0 UV-I 108 W/m 0,9 C 3,3 C 4,0 km/h (1 Bft) 0,00 %
23.11.2014 10:00 3,4 C 83 % 1026,5 hPa 0,0 l/m 6,5 km/h (2 Bft) O 97 0 min 0,000 mm 1,0 UV-I 103 W/m 0,8 C 3,3 C 7,9 km/h (2 Bft) 0,00 %
23.11.2014 10:15 3,5 C 83 % 1026,6 hPa 0,0 l/m 1,4 km/h (1 Bft) O-SO 118 0 min 0,000 mm 0,0 UV-I 91 W/m 0,9 C 3,5 C 4,0 km/h (1 Bft) 0,00 %
23.11.2014 10:30 3,5 C 83 % 1026,6 hPa 0,0 l/m 5,4 km/h (1 Bft) O 89 0 min 0,000 mm 1,0 UV-I 120 W/m 0,9 C 3,5 C 11,9 km/h (2 Bft) 0,00 %
23.11.2014 10:45 3,7 C 83 % 1026,7 hPa 0,0 l/m 7,2 km/h (2 Bft) O 90 0 min 0,000 mm 1,0 UV-I 182 W/m 1,1 C 3,0 C 11,9 km/h (2 Bft) 0,00 %
23.11.2014 11:00 3,7 C 82 % 1026,6 hPa 0,0 l/m 8,3 km/h (2 Bft) O 91 0 min 0,000 mm 1,0 UV-I 168 W/m 0,9 C 2,0 C 11,9 km/h (2 Bft) 0,00 %
23.11.2014 11:15 3,8 C 82 % 1026,4 hPa 0,0 l/m 2,2 km/h (1 Bft) O 93 0 min 0,000 mm 1,0 UV-I 142 W/m 1,0 C 3,8 C 4,0 km/h (1 Bft) 0,00 %
23.11.2014 11:30 3,9 C 82 % 1026,2 hPa 0,0 l/m 4,0 km/h (1 Bft) O 93 15 min 0,000 mm 1,0 UV-I 214 W/m 1,1 C 3,9 C 7,9 km/h (2 Bft) 0,00 %
23.11.2014 11:45 4,0 C 82 % 1025,9 hPa 0,0 l/m 1,4 km/h (1 Bft) SO 138 15 min 0,000 mm 1,0 UV-I 224 W/m 1,2 C 4,0 C 4,0 km/h (1 Bft) 0,00 %
23.11.2014 12:00 4,0 C 82 % 1025,9 hPa 0,0 l/m 1,8 km/h (1 Bft) O-NO 77 15 min 0,000 mm 1,0 UV-I 231 W/m 1,2 C 4,0 C 7,9 km/h (2 Bft) 0,00 %
23.11.2014 12:15 4,1 C 82 % 1025,9 hPa 0,0 l/m 6,5 km/h (2 Bft) O-SO 103 0 min 0,000 mm 1,0 UV-I 175 W/m 1,3 C 4,0 C 7,9 km/h (2 Bft) 0,00 %
23.11.2014 12:30 4,1 C 82 % 1025,7 hPa 0,0 l/m 4,7 km/h (1 Bft) O-SO 113 0 min 0,000 mm 1,0 UV-I 188 W/m 1,3 C 4,1 C 7,9 km/h (2 Bft) 0,00 %
23.11.2014 12:45 4,1 C 82 % 1025,6 hPa 0,0 l/m 5,8 km/h (2 Bft) O-SO 107 0 min 0,000 mm 1,0 UV-I 129 W/m 1,3 C 4,1 C 11,9 km/h (2 Bft) 0,00 %
23.11.2014 13:00 4,1 C 82 % 1025,5 hPa 0,0 l/m 7,9 km/h (2 Bft) O-SO 107 0 min 0,000 mm 1,0 UV-I 163 W/m 1,3 C 2,7 C 11,9 km/h (2 Bft) 0,00 %
23.11.2014 13:15 4,2 C 82 % 1025,3 hPa 0,0 l/m 2,9 km/h (1 Bft) W-SW 257 15 min 0,000 mm 1,0 UV-I 239 W/m 1,4 C 4,2 C 7,9 km/h (2 Bft) 0,00 %
23.11.2014 13:30 4,2 C 82 % 1025,1 hPa 0,0 l/m 0,4 km/h (0 Bft) NW 319 0 min 0,000 mm 1,0 UV-I 162 W/m 1,4 C 4,2 C 4,0 km/h (1 Bft) 0,00 %
23.11.2014 13:45 4,3 C 82 % 1025,1 hPa 0,0 l/m 5,8 km/h (2 Bft) O-SO 106 0 min 0,000 mm 1,0 UV-I 120 W/m 1,5 C 4,3 C 7,9 km/h (2 Bft) 0,00 %
23.11.2014 14:00 4,3 C 81 % 1025,2 hPa 0,0 l/m 4,0 km/h (1 Bft) O 98 0 min 0,000 mm 1,0 UV-I 103 W/m 1,3 C 4,3 C 7,9 km/h (2 Bft) 0,00 %
23.11.2014 14:15 4,3 C 81 % 1025,1 hPa 0,0 l/m 4,7 km/h (1 Bft) O 94 0 min 0,000 mm 1,0 UV-I 120 W/m 1,3 C 4,3 C 7,9 km/h (2 Bft) 0,00 %
23.11.2014 14:30 4,3 C 81 % 1024,8 hPa 0,0 l/m 6,5 km/h (2 Bft) O-SO 117 15 min 0,000 mm 1,0 UV-I 140 W/m 1,3 C 4,2 C 7,9 km/h (2 Bft) 0,00 %
23.11.2014 14:45 4,3 C 81 % 1024,8 hPa 0,0 l/m 9,0 km/h (2 Bft) O-SO 114 0 min 0,000 mm 0,0 UV-I 76 W/m 1,3 C 2,1 C 15,8 km/h (3 Bft) 0,00 %
23.11.2014 15:00 4,3 C 81 % 1024,8 hPa 0,0 l/m 10,8 km/h (2 Bft) SO 134 0 min 0,000 mm 0,0 UV-I 63 W/m 1,3 C 0,7 C 15,8 km/h (3 Bft) 0,00 %
23.11.2014 15:15 4,3 C 81 % 1024,8 hPa 0,0 l/m 3,2 km/h (1 Bft) O-SO 119 0 min 0,000 mm 0,0 UV-I 28 W/m 1,3 C 4,3 C 7,9 km/h (2 Bft) 0,00 %
23.11.2014 15:30 4,3 C 81 % 1024,7 hPa 0,0 l/m 9,0 km/h (2 Bft) O-SO 114 0 min 0,000 mm 0,0 UV-I 0 W/m 1,3 C 2,1 C 11,9 km/h (2 Bft) 0,00 %
23.11.2014 15:45 4,3 C 81 % 1024,9 hPa 0,0 l/m 3,2 km/h (1 Bft) O-SO 102 0 min 0,000 mm 0,0 UV-I 0 W/m 1,3 C 4,3 C 7,9 km/h (2 Bft) 0,00 %
23.11.2014 16:00 4,3 C 81 % 1024,6 hPa 0,0 l/m 0,7 km/h (0 Bft) O-NO 63 0 min 0,000 mm 0,0 UV-I 0 W/m 1,3 C 4,3 C 4,0 km/h (1 Bft) 0,00 %
23.11.2014 16:15 4,4 C 80 % 1024,4 hPa 0,0 l/m 7,9 km/h (2 Bft) O-SO 103 0 min 0,000 mm 0,0 UV-I 0 W/m 1,3 C 3,1 C 11,9 km/h (2 Bft) 0,00 %
23.11.2014 16:30 4,5 C 79 % 1024,7 hPa 0,0 l/m 6,8 km/h (2 Bft) O-SO 109 0 min 0,000 mm 0,0 UV-I 0 W/m 1,2 C 4,2 C 7,9 km/h (2 Bft) 0,00 %
23.11.2014 16:45 4,6 C 79 % 1024,7 hPa 0,0 l/m 2,9 km/h (1 Bft) O 82 0 min 0,000 mm 0,0 UV-I 0 W/m 1,3 C 4,6 C 4,0 km/h (1 Bft) 0,00 %
23.11.2014 17:00 4,6 C 79 % 1024,9 hPa 0,0 l/m 0,4 km/h (0 Bft) SO 144 0 min 0,000 mm 0,0 UV-I 0 W/m 1,3 C 4,6 C 4,0 km/h (1 Bft) 0,00 %
23.11.2014 17:15 4,6 C 79 % 1025,0 hPa 0,0 l/m 1,4 km/h (1 Bft) SO 144 0 min 0,000 mm 0,0 UV-I 0 W/m 1,3 C 4,6 C 4,0 km/h (1 Bft) 0,00 %
23.11.2014 17:30 4,6 C 78 % 1024,5 hPa 0,0 l/m 0,7 km/h (0 Bft) W-SW 255 0 min 0,000 mm 0,0 UV-I 0 W/m 1,1 C 4,6 C 4,0 km/h (1 Bft) 0,00 %
23.11.2014 17:45 4,6 C 79 % 1024,8 hPa 0,0 l/m 7,9 km/h (2 Bft) SO 130 0 min 0,000 mm 0,0 UV-I 0 W/m 1,3 C 3,3 C 11,9 km/h (2 Bft) 0,00 %
23.11.2014 18:00 4,7 C 79 % 1024,8 hPa 0,0 l/m 0,7 km/h (0 Bft) SO 143 0 min 0,000 mm 0,0 UV-I 0 W/m 1,4 C 4,7 C 4,0 km/h (1 Bft) 0,00 %
23.11.2014 18:15 4,7 C 79 % 1024,7 hPa 0,0 l/m 12,2 km/h (2 Bft) O-SO 111 0 min 0,000 mm 0,0 UV-I 0 W/m 1,4 C 0,3 C 15,8 km/h (3 Bft) 0,00 %
23.11.2014 18:30 4,7 C 79 % 1024,7 hPa 0,0 l/m 14,0 km/h (3 Bft) O-SO 112 0 min 0,000 mm 0,0 UV-I 0 W/m 1,4 C -0,8 C 19,8 km/h (3 Bft) 0,00 %
23.11.2014 18:45 4,8 C 78 % 1025,0 hPa 0,0 l/m 4,3 km/h (1 Bft) O 100 0 min 0,000 mm 0,0 UV-I 0 W/m 1,3 C 4,8 C 7,9 km/h (2 Bft) 0,00 %
23.11.2014 19:00 4,7 C 78 % 1024,5 hPa 0,0 l/m 6,8 km/h (2 Bft) O 99 0 min 0,000 mm 0,0 UV-I 0 W/m 1,2 C 4,4 C 11,9 km/h (2 Bft) 0,00 %
23.11.2014 19:15 4,7 C 79 % 1024,3 hPa 0,0 l/m 15,5 km/h (3 Bft) O 101 0 min 0,000 mm 0,0 UV-I 0 W/m 1,4 C -1,5 C 24,1 km/h (4 Bft) 0,00 %
23.11.2014 19:30 4,7 C 79 % 1024,8 hPa 0,0 l/m 5,8 km/h (2 Bft) O-SO 108 0 min 0,000 mm 0,0 UV-I 0 W/m 1,4 C 4,7 C 11,9 km/h (2 Bft) 0,00 %
23.11.2014 19:45 4,7 C 79 % 1024,6 hPa 0,0 l/m 7,9 km/h (2 Bft) O-SO 110 0 min 0,000 mm 0,0 UV-I 0 W/m 1,4 C 3,4 C 15,8 km/h (3 Bft) 0,00 %
23.11.2014 20:00 4,8 C 79 % 1024,7 hPa 0,0 l/m 6,8 km/h (2 Bft) O 92 0 min 0,000 mm 0,0 UV-I 0 W/m 1,5 C 4,5 C 11,9 km/h (2 Bft) 0,00 %
23.11.2014 20:15 4,7 C 78 % 1024,6 hPa 0,0 l/m 2,9 km/h (1 Bft) O-SO 112 0 min 0,000 mm 0,0 UV-I 0 W/m 1,2 C 4,7 C 7,9 km/h (2 Bft) 0,00 %
23.11.2014 20:30 4,7 C 79 % 1024,8 hPa 0,0 l/m 7,9 km/h (2 Bft) O-SO 116 0 min 0,000 mm 0,0 UV-I 0 W/m 1,4 C 3,4 C 11,9 km/h (2 Bft) 0,00 %
23.11.2014 20:45 4,7 C 78 % 1024,7 hPa 0,0 l/m 5,4 km/h (1 Bft) O 100 0 min 0,000 mm 0,0 UV-I 0 W/m 1,2 C 4,7 C 7,9 km/h (2 Bft) 0,00 %
23.11.2014 21:00 4,7 C 79 % 1024,7 hPa 0,0 l/m 0,7 km/h (0 Bft) S 191 0 min 0,000 mm 0,0 UV-I 0 W/m 1,4 C 4,7 C 4,0 km/h (1 Bft) 0,00 %
23.11.2014 21:15 4,6 C 79 % 1024,7 hPa 0,0 l/m 2,2 km/h (1 Bft) O-SO 110 0 min 0,000 mm 0,0 UV-I 0 W/m 1,3 C 4,6 C 7,9 km/h (2 Bft) 0,00 %
23.11.2014 21:30 4,6 C 79 % 1025,1 hPa 0,0 l/m 1,4 km/h (1 Bft) S 172 0 min 0,000 mm 0,0 UV-I 0 W/m 1,3 C 4,6 C 4,0 km/h (1 Bft) 0,00 %
23.11.2014 21:45 4,6 C 79 % 1025,0 hPa 0,0 l/m 2,9 km/h (1 Bft) S-SO 154 0 min 0,000 mm 0,0 UV-I 0 W/m 1,3 C 4,6 C 7,9 km/h (2 Bft) 0,00 %
23.11.2014 22:00 4,5 C 79 % 1025,0 hPa 0,0 l/m 6,5 km/h (2 Bft) O 96 0 min 0,000 mm 0,0 UV-I 0 W/m 1,2 C 4,4 C 7,9 km/h (2 Bft) 0,00 %
23.11.2014 22:15 4,5 C 79 % 1024,5 hPa 0,0 l/m 10,4 km/h (2 Bft) S 173 0 min 0,000 mm 0,0 UV-I 0 W/m 1,2 C 1,2 C 15,8 km/h (3 Bft) 0,00 %
23.11.2014 22:30 4,5 C 79 % 1024,8 hPa 0,0 l/m 10,4 km/h (2 Bft) O-SO 113 0 min 0,000 mm 0,0 UV-I 0 W/m 1,2 C 1,2 C 11,9 km/h (2 Bft) 0,00 %
23.11.2014 22:45 4,5 C 79 % 1024,6 hPa 0,0 l/m 9,7 km/h (2 Bft) O-SO 111 0 min 0,000 mm 0,0 UV-I 0 W/m 1,2 C 1,7 C 11,9 km/h (2 Bft) 0,00 %
23.11.2014 23:00 4,4 C 80 % 1024,6 hPa 0,0 l/m 16,6 km/h (3 Bft) O-SO 104 0 min 0,000 mm 0,0 UV-I 0 W/m 1,3 C -2,5 C 19,8 km/h (3 Bft) 0,00 %
23.11.2014 23:15 4,4 C 80 % 1024,6 hPa 0,0 l/m 4,0 km/h (1 Bft) O-NO 68 0 min 0,000 mm 0,0 UV-I 0 W/m 1,3 C 4,4 C 7,9 km/h (2 Bft) 0,00 %
23.11.2014 23:30 4,3 C 80 % 1024,8 hPa 0,0 l/m 7,9 km/h (2 Bft) O 80 0 min 0,000 mm 0,0 UV-I 0 W/m 1,2 C 3,0 C 15,8 km/h (3 Bft) 0,00 %
23.11.2014 23:45 4,2 C 81 % 1024,7 hPa 0,0 l/m 9,0 km/h (2 Bft) O-SO 112 0 min 0,000 mm 0,0 UV-I 0 W/m 1,2 C 1,9 C 11,9 km/h (2 Bft) 0,00 %
_ Min-Zeit 00:00 17:30 05:15 - 00:00 - - - - - - 00:00 04:45 00:00 00:00
Minimum _ 2,5 C 78 % 1024,3 hPa - 0,0 km/h (0 Bft) - - - - - - -0,3 C -2,5 C 0,0 km/h (0 Bft) 0,00 %
_ Max-Zeit 18:45 05:45 10:45 00:00 23:00 - - 11:30 00:00 09:45 13:15 13:45 18:45 19:15 00:00
Maximum _ 4,8 C 84 % 1026,7 hPa 0,0 l/m 16,6 km/h
O-SO (3 Bft)
- - 15 min 0,000 mm 1,0 UV-I 239 W/m 1,5 C 4,8 C 24,1 km/h
O (4 Bft)
0,00 %
Durchschnitt _ 3,7 C 82 % 1025,3 hPa #0,0 l/m 4,8 km/h (1 Bft) O-SO - #1:15 h #0,000 mm 1,0 UV-I 128 W/m 0,9 C 3,0 C 8,2 km/h (2 Bft) 0,00 %